TVF3265 LTBJ-LFPO

Flight info

Callsign TVF3265
Flight time N/A
Altitude 38000
Route RIKSO1T/34L RIKSO UN127 LMO UN128 FSK UL608 DISOR DCT UTOMO DCT GLOMY DCT PALEZ DCT PEVAL DCT RESIA DCT OLBEN T10 ROBIR DCT RLP
Aircraft A20N/M-SDE2E3FGHIRWXY/LB1

Departure

Time 2026-04-27 17:09
Airport Adnan Menderes International Airport (LTBJ)

Arrival

Time N/A
Airport Paris-Orly Airport (LFPO)
Time Latitude Longitude Altitude Speed Heading
2026-04-27 16:41 38.29401 27.15019 401 ft 0 kts 256°
2026-04-27 17:00 38.29405 27.15042 398 ft 2 kts 256°
2026-04-27 17:00 38.29409 27.15061 400 ft 2 kts 251°
2026-04-27 17:01 38.29418 27.15080 400 ft 2 kts 205°
2026-04-27 17:01 38.29431 27.15086 399 ft 2 kts 175°
2026-04-27 17:01 38.29435 27.15085 399 ft 0 kts 164°
2026-04-27 17:03 38.29433 27.15086 401 ft 1 kts 164°
2026-04-27 17:03 38.29403 27.15104 399 ft 10 kts 156°
2026-04-27 17:03 38.29316 27.15139 395 ft 16 kts 167°
2026-04-27 17:03 38.29199 27.15175 397 ft 17 kts 167°
2026-04-27 17:04 38.29077 27.15212 395 ft 17 kts 167°
2026-04-27 17:04 38.29013 27.15269 394 ft 10 kts 88°
2026-04-27 17:04 38.28968 27.15325 393 ft 12 kts 165°
2026-04-27 17:04 38.28861 27.15355 391 ft 20 kts 167°
2026-04-27 17:05 38.28731 27.15393 389 ft 21 kts 167°
2026-04-27 17:05 38.28588 27.15439 387 ft 20 kts 163°
2026-04-27 17:05 38.28454 27.15485 385 ft 20 kts 165°
2026-04-27 17:05 38.28371 27.15514 383 ft 18 kts 165°
2026-04-27 17:06 38.28226 27.15553 381 ft 14 kts 169°
2026-04-27 17:06 38.28136 27.15580 380 ft 12 kts 157°
2026-04-27 17:06 38.28095 27.15644 379 ft 8 kts 101°
2026-04-27 17:06 38.28103 27.15686 379 ft 3 kts 75°
2026-04-27 17:07 38.28105 27.15693 379 ft 0 kts 75°
2026-04-27 17:07 38.28106 27.15696 379 ft 2 kts 75°
2026-04-27 17:07 38.28117 27.15750 379 ft 7 kts 75°
2026-04-27 17:08 38.28144 27.15805 379 ft 8 kts 22°
2026-04-27 17:08 38.28265 27.15771 382 ft 45 kts 347°
2026-04-27 17:08 38.28788 27.15611 390 ft 107 kts 346°
2026-04-27 17:08 38.29673 27.15348 400 ft 152 kts 347°
2026-04-27 17:09 38.30761 27.15027 808 ft 161 kts 347°
2026-04-27 17:09 38.31852 27.14698 1548 ft 157 kts 346°
2026-04-27 17:09 38.32901 27.14373 2234 ft 156 kts 346°
2026-04-27 17:09 38.34023 27.14060 2539 ft 175 kts 349°
2026-04-27 17:10 38.35290 27.13740 2861 ft 195 kts 349°
2026-04-27 17:10 38.36722 27.13348 3145 ft 219 kts 341°
2026-04-27 17:10 38.38061 27.12348 3467 ft 239 kts 315°
2026-04-27 17:10 38.38933 27.10499 3984 ft 251 kts 285°
2026-04-27 17:11 38.39032 27.08294 4823 ft 252 kts 268°
2026-04-27 17:11 38.38855 27.03665 6118 ft 265 kts 276°
2026-04-27 17:11 38.39403 27.01429 6829 ft 268 kts 301°
2026-04-27 17:12 38.41943 26.97889 8223 ft 275 kts 314°
2026-04-27 17:12 38.43298 26.96142 8929 ft 278 kts 314°
2026-04-27 17:12 38.44666 26.94365 9636 ft 282 kts 314°
2026-04-27 17:13 38.46044 26.92568 10281 ft 287 kts 314°
2026-04-27 17:13 38.47493 26.90671 10517 ft 307 kts 314°
2026-04-27 17:13 38.49010 26.88682 10705 ft 327 kts 314°
2026-04-27 17:13 38.50622 26.86569 11155 ft 335 kts 314°
2026-04-27 17:14 38.52250 26.84432 11799 ft 337 kts 314°
2026-04-27 17:14 38.53894 26.82272 12453 ft 340 kts 315°
2026-04-27 17:14 38.55551 26.80094 13068 ft 343 kts 315°
2026-04-27 17:14 38.57219 26.77898 13695 ft 346 kts 315°
2026-04-27 17:15 38.58902 26.75680 14261 ft 349 kts 315°
2026-04-27 17:15 38.60597 26.73447 14818 ft 351 kts 315°
2026-04-27 17:15 38.62305 26.71195 15367 ft 354 kts 315°
2026-04-27 17:15 38.64020 26.68934 15898 ft 356 kts 315°
2026-04-27 17:16 38.65754 26.66645 16426 ft 359 kts 315°
2026-04-27 17:16 38.67501 26.64336 16970 ft 362 kts 315°